TimeEDT,TemperatureF,Dew PointF,Humidity,Sea Level PressureIn,VisibilityMPH,Wind Direction,Wind SpeedMPH,Gust SpeedMPH,PrecipitationIn,Events,Conditions,WindDirDegrees,DateUTC
12:15 AM,68.0,68.0,100,30.05,10.0,Calm,Calm,-,N/A,,Mostly Cloudy,0,2012-09-04 04:15:00
12:35 AM,68.0,68.0,100,30.05,10.0,South,3.5,-,N/A,,Scattered Clouds,180,2012-09-04 04:35:00
12:55 AM,68.0,68.0,100,30.05,10.0,South,4.6,-,N/A,,Clear,170,2012-09-04 04:55:00
1:15 AM,68.0,68.0,100,30.04,10.0,South,6.9,-,N/A,,Scattered Clouds,170,2012-09-04 05:15:00
1:35 AM,68.0,68.0,100,30.03,10.0,South,6.9,-,N/A,,Mostly Cloudy,170,2012-09-04 05:35:00
1:55 AM,68.0,68.0,100,30.03,10.0,SSE,6.9,-,N/A,,Overcast,160,2012-09-04 05:55:00
2:15 AM,68.0,68.0,100,30.03,10.0,SSE,5.8,-,N/A,,Overcast,160,2012-09-04 06:15:00
2:35 AM,68.0,68.0,100,30.03,10.0,SSE,5.8,-,N/A,,Overcast,160,2012-09-04 06:35:00
2:55 AM,69.8,68.0,94,30.02,10.0,South,8.1,-,N/A,,Overcast,170,2012-09-04 06:55:00
3:15 AM,69.8,68.0,94,30.02,10.0,South,11.5,-,N/A,,Overcast,170,2012-09-04 07:15:00
3:35 AM,69.8,68.0,94,30.02,10.0,South,8.1,-,N/A,,Mostly Cloudy,180,2012-09-04 07:35:00
3:55 AM,68.0,68.0,100,30.02,10.0,South,10.4,-,N/A,,Scattered Clouds,180,2012-09-04 07:55:00
4:15 AM,69.8,68.0,94,30.01,10.0,South,11.5,-,N/A,,Scattered Clouds,170,2012-09-04 08:15:00
4:35 AM,68.0,68.0,100,30.01,10.0,South,8.1,-,N/A,,Mostly Cloudy,170,2012-09-04 08:35:00
4:55 AM,68.0,68.0,100,30.01,10.0,South,8.1,-,N/A,,Scattered Clouds,170,2012-09-04 08:55:00
5:15 AM,68.0,68.0,100,30.01,10.0,South,9.2,-,N/A,,Clear,170,2012-09-04 09:15:00
5:55 AM,68.0,68.0,100,30.02,10.0,South,4.6,-,N/A,,Clear,170,2012-09-04 09:55:00
6:15 AM,68.0,68.0,100,30.03,10.0,SSW,4.6,-,N/A,,Clear,210,2012-09-04 10:15:00
6:35 AM,68.0,68.0,100,30.03,10.0,South,3.5,-,N/A,,Scattered Clouds,180,2012-09-04 10:35:00
6:55 AM,68.0,68.0,100,30.04,10.0,SSW,4.6,-,N/A,,Mostly Cloudy,200,2012-09-04 10:55:00
7:15 AM,68.0,68.0,100,30.05,10.0,Calm,Calm,-,N/A,,Mostly Cloudy,0,2012-09-04 11:15:00
7:35 AM,68.0,68.0,100,30.05,10.0,Calm,Calm,-,N/A,,Scattered Clouds,0,2012-09-04 11:35:00
7:55 AM,69.8,68.0,94,30.04,10.0,South,4.6,-,N/A,,Mostly Cloudy,180,2012-09-04 11:55:00
8:15 AM,69.8,68.0,94,30.05,10.0,South,4.6,-,N/A,,Overcast,170,2012-09-04 12:15:00
8:35 AM,69.8,68.0,94,30.04,10.0,South,6.9,-,N/A,,Overcast,170,2012-09-04 12:35:00
8:55 AM,71.6,68.0,88,30.05,10.0,South,6.9,-,N/A,,Overcast,170,2012-09-04 12:55:00
9:15 AM,71.6,68.0,88,30.05,10.0,SSE,4.6,-,N/A,,Overcast,160,2012-09-04 13:15:00
9:35 AM,71.6,68.0,88,30.04,10.0,SSE,5.8,-,N/A,,Overcast,160,2012-09-04 13:35:00
9:55 AM,71.6,68.0,88,30.04,10.0,SSE,3.5,-,N/A,,Overcast,160,2012-09-04 13:55:00
10:15 AM,71.6,66.2,83,30.04,10.0,SSE,6.9,-,N/A,,Overcast,160,2012-09-04 14:15:00
10:35 AM,73.4,68.0,83,30.04,10.0,SSE,8.1,-,N/A,,Overcast,160,2012-09-04 14:35:00
10:55 AM,77.0,68.0,74,30.03,10.0,South,11.5,-,N/A,,Scattered Clouds,170,2012-09-04 14:55:00
11:15 AM,77.0,68.0,74,30.03,10.0,SSE,10.4,-,N/A,,Clear,150,2012-09-04 15:15:00
11:35 AM,77.0,68.0,74,30.04,10.0,South,11.5,16.1,N/A,,Scattered Clouds,190,2012-09-04 15:35:00
11:55 AM,77.0,68.0,74,30.04,10.0,South,10.4,-,N/A,,Mostly Cloudy,170,2012-09-04 15:55:00
12:15 PM,77.0,68.0,74,30.04,10.0,South,8.1,-,N/A,,Overcast,170,2012-09-04 16:15:00
12:35 PM,78.8,68.0,69,30.05,10.0,South,8.1,-,N/A,,Overcast,190,2012-09-04 16:35:00
12:55 PM,77.0,68.0,74,30.04,10.0,South,9.2,-,N/A,,Overcast,170,2012-09-04 16:55:00
1:15 PM,77.0,68.0,74,30.04,10.0,South,6.9,-,N/A,,Overcast,190,2012-09-04 17:15:00
1:35 PM,77.0,68.0,74,30.04,10.0,South,6.9,-,N/A,,Overcast,170,2012-09-04 17:35:00
1:55 PM,78.8,69.8,74,30.03,10.0,South,8.1,-,N/A,,Overcast,180,2012-09-04 17:55:00
2:15 PM,80.6,69.8,70,30.02,10.0,SSE,6.9,-,N/A,,Mostly Cloudy,160,2012-09-04 18:15:00
2:35 PM,80.6,69.8,70,30.02,10.0,South,6.9,-,N/A,,Mostly Cloudy,180,2012-09-04 18:35:00
2:55 PM,78.8,68.0,69,30.02,10.0,SSE,8.1,-,N/A,,Overcast,160,2012-09-04 18:55:00
3:15 PM,78.8,69.8,74,30.01,10.0,SSE,10.4,-,N/A,,Overcast,150,2012-09-04 19:15:00
3:35 PM,77.0,69.8,78,30.00,10.0,South,6.9,-,N/A,,Overcast,180,2012-09-04 19:35:00
3:55 PM,77.0,69.8,78,30.00,10.0,South,6.9,-,N/A,,Overcast,190,2012-09-04 19:55:00
4:15 PM,78.8,69.8,74,29.99,10.0,SSE,6.9,-,N/A,,Overcast,160,2012-09-04 20:15:00
4:35 PM,80.6,69.8,70,29.98,10.0,SSE,4.6,-,N/A,,Scattered Clouds,160,2012-09-04 20:35:00
4:55 PM,80.6,69.8,70,29.99,10.0,SSW,6.9,-,N/A,,Scattered Clouds,210,2012-09-04 20:55:00
5:15 PM,80.6,69.8,70,29.99,10.0,SSW,5.8,-,N/A,,Scattered Clouds,200,2012-09-04 21:15:00
5:35 PM,78.8,69.8,74,29.99,10.0,SE,4.6,-,N/A,,Mostly Cloudy,140,2012-09-04 21:35:00
5:55 PM,78.8,69.8,74,29.99,10.0,SSE,8.1,-,N/A,,Scattered Clouds,160,2012-09-04 21:55:00
6:15 PM,77.0,69.8,78,29.99,10.0,South,6.9,-,N/A,,Scattered Clouds,170,2012-09-04 22:15:00
6:35 PM,77.0,68.0,74,29.99,10.0,South,5.8,-,N/A,,Overcast,170,2012-09-04 22:35:00
6:55 PM,77.0,69.8,78,29.99,10.0,Calm,Calm,-,N/A,,Overcast,0,2012-09-04 22:55:00
7:15 PM,77.0,69.8,78,29.99,10.0,Calm,Calm,-,N/A,,Overcast,0,2012-09-04 23:15:00
7:35 PM,73.4,69.8,88,30.00,10.0,Calm,Calm,-,N/A,,Overcast,0,2012-09-04 23:35:00
7:55 PM,73.4,69.8,88,30.00,10.0,Calm,Calm,-,N/A,Rain,Light Rain,0,2012-09-04 23:55:00
8:15 PM,73.4,71.6,94,30.00,7.0,Calm,Calm,-,N/A,Rain,Light Rain,0,2012-09-05 00:15:00
8:35 PM,71.6,71.6,100,30.00,7.0,Calm,Calm,-,N/A,,Overcast,0,2012-09-05 00:35:00
8:55 PM,71.6,71.6,100,30.02,10.0,Calm,Calm,-,N/A,,Overcast,0,2012-09-05 00:55:00
9:15 PM,71.6,71.6,100,30.02,10.0,Calm,Calm,-,N/A,Rain,Light Rain,0,2012-09-05 01:15:00
9:35 PM,71.6,71.6,100,30.02,10.0,Calm,Calm,-,N/A,,Overcast,0,2012-09-05 01:35:00
9:55 PM,71.6,71.6,100,30.02,10.0,Calm,Calm,-,N/A,,Overcast,0,2012-09-05 01:55:00
10:15 PM,71.6,71.6,100,30.02,10.0,Calm,Calm,-,N/A,,Overcast,0,2012-09-05 02:15:00
10:35 PM,71.6,71.6,100,30.02,10.0,Calm,Calm,-,N/A,,Overcast,0,2012-09-05 02:35:00
10:55 PM,71.6,71.6,100,30.02,10.0,SSW,3.5,-,N/A,,Overcast,210,2012-09-05 02:55:00
11:15 PM,71.6,71.6,100,30.02,10.0,SW,5.8,-,N/A,,Overcast,220,2012-09-05 03:15:00
11:35 PM,71.6,71.6,100,30.02,10.0,SW,4.6,-,N/A,,Mostly Cloudy,230,2012-09-05 03:35:00